Location: Capvern
(43.1036°N, 0.3160°E)
Time: 17:17:19
(UTC+00:00)

N. Korean satellite - Pass Details

Date: 28 January 2022
Orbit: 438 x 478 km, 97.3° (Epoch: 21 May)

Event Time Altitude Azimuth Distance (km) Brightness Sun altitude
Rises 06:21:46 0° 353° (N) 2,635 10.1 -10.5°
Reaches altitude 10° 06:24:33 10° 331° (NNW) 1,743 9.0 -10.0°
Maximum altitude 06:26:46 15° 295° (WNW) 1,433 8.3 -9.6°
Drops below altitude 10° 06:28:59 10° 258° (WSW) 1,729 8.8 -9.3°
Sets 06:31:44 0° 235° (SW) 2,601 9.9 -8.8°
